sat.trackr.live / text

‹ back to catalog

STARLINK-32383

NORAD 61891 · 2024-204T

PAYLOAD ACTIVE UNKNOWN

§ Identity

Operator
Country
US
Launch date
2024-11-09
Launch site
AFWTR
Launch vehicle
Mass (kg)
RCS (m²)

Purposes: comms

External: N2YO · Heavens-Above · Gunter

§ Orbital elements

Epoch: 2026-05-25T03:29:01.036032Z

Period
93.85 min
Inclination
53.1609°
Eccentricity
0.0001236
Mean motion
15.34385687 rev/d
Perigee alt
461.9 km
Apogee alt
463.6 km
Semi-major
6,840.9 km
B*
1.3506e-5
RAAN
131.2131°
Arg perigee
92.7689°
Mean anomaly
267.3455°
Rev number
8,681

§ Raw data

STARLINK-323831 61891U 24204T   26145.14515088  .00000080  00000+0  13506-4 0  99932 61891  53.1609 131.2131 0001236  92.7689 267.3455 15.34385687 86811

JSON: /api/v1/satellites/61891 · /tle

For live sub-satellite position, see the globe view (requires WebGL).

§ Visibility from observer

Set your observer location to see the next 7 days of passes ≥ 10°. The values pass through the URL so the page stays shareable.

No JS? Fill the form by hand. The geolocation button needs JavaScript.